Location: Quaker Farms
(41.4276°N, 73.1557°W)
Time: 00:37:32
(UTC+00:00)

Altair - Pass Details

Date: 16 June 2021
Orbit: 1501 x 1682 km, 47.2° (Epoch: 23 July)

Event Time Altitude Azimuth Distance (km) Brightness Sun altitude
Rises 20:54:07 0° 266° (W) 4,732 11.0 37.2°
Reaches altitude 10° 20:57:12 10° 270° (W) 3,773 10.9 36.7°
Maximum altitude 21:06:46 65° 351° (N) 1,756 8.5 34.9°
Drops below altitude 10° 21:16:44 10° 73° (ENE) 3,912 9.2 33.0°
Sets 21:19:59 0° 77° (ENE) 4,915 9.6 32.4°
